Location: *
(46.3500°N, 10.9000°E)
Time: 00:26:01
(UTC+00:00)

Vanguard 2 - Pass Details

Date: 23 April 2021
Orbit: 552 x 2938 km, 32.9° (Epoch: 12 May)

Event Time Altitude Azimuth Distance (km) Brightness Sun altitude
Rises 13:09:27 0° 256° (WSW) 6,623 12.8 48.6°
Reaches altitude 10° 13:14:29 10° 251° (WSW) 5,397 12.7 48.0°
Maximum altitude 13:28:10 42° 188° (S) 2,643 11.5 46.2°
Drops below altitude 10° 13:37:08 10° 122° (ESE) 3,580 10.9 45.0°
Sets 13:39:46 0° 115° (ESE) 4,274 11.1 44.6°
